Temp
79 79 79 80 79 80 79 79 79 80 80 80 79 80 80 80 79 78 78 77 77 76 77 77 77 77 77 77 78 78 78 78 78 77 77 77 77 77 76 76 76 75 76 76 76 76 77 78 78 78 78 78 78 77 77 78 78 78 78 78 78 77 76
79 79 80 80 79 79 80 80 80 81 81 81 80 80 80 80 79 78 78 78 77 77 77 77 77 77 77 77 78 78 77 78 78 78 78 77 77 76 77 76 76 75 75 77 77 77 77 78 78 78 78 78 78 78 78 78 78 78 78 77 77 76 76
79 80 80 80 80 80 79 80 80 81 81 82 81 81 80 79 79 79 78 78 77 77 78 78 78 78 78 78 77 77 78 78 78 78 77 78 77 78 78 77 77 76 77 77 77 77 78 78 78 78 78 78 78 77 77 77 78 78 78 77 77 77 76
79 79 80 81 81 81 81 80 80 82 83 83 82 82 81 79 80 80 79 79 78 78 77 78 78 78 78 78 77 77 77 78 78 78 79 79 78 78 77 77 76 77 76 76 78 78 78 78 78 77 78 77 78 78 78 78 78 78 78 77 77 77 77
79 80 81 80 81 80 80 80 81 81 82 84 83 82 82 81 81 81 80 80 80 79 79 79 80 79 79 79 79 78 78 78 78 78 79 79 78 78 77 77 77 77 77 78 77 77 77 77 77 77 77 78 78 78 78 78 78 78 78 77 77 77 77
79 78 79 80 81 81 81 82 82 83 83 83 83 82 83 83 83 82 81 80 80 81 80 79 79 79 78 79 79 79 78 78 78 78 78 78 78 77 77 78 78 78 78 77 78 78 78 78 78 78 78 78 78 78 78 78 78 78 78 77 77 77 77
80 79 80 81 81 82 82 82 83 84 84 85 84 84 84 84 83 82 82 81 81 79 79 79 80 79 79 79 78 78 78 78 78 78 79 78 78 78 77 78 78 78 79 78 77 78 78 78 78 78 78 79 78 78 78 77 77 78 77 77 77 77 77
80 80 80 81 82 83 83 83 83 84 84 84 84 83 83 84 83 83 82 82 81 81 80 80 79 79 79 79 79 78 78 78 79 79 78 78 78 78 78 78 78 78 78 77 77 78 78 78 79 78 78 79 78 78 78 78 78 78 78 77 76 77 77
81 81 81 82 83 84 84 83 83 83 82 82 83 82 83 83 83 83 82 82 82 81 81 81 81 80 79 79 78 78 79 79 78 78 78 78 78 79 79 79 78 78 78 78 79 78 78 78 78 78 78 78 78 78 78 78 78 78 78 77 77 77 77
80 79 80 83 83 84 83 83 82 81 80 80 80 80 81 82 83 83 83 83 82 81 81 82 82 81 79 79 79 79 78 78 78 79 79 78 79 79 79 80 79 79 78 79 79 78 78 78 78 78 77 77 77 78 78 78 78 78 78 78 78 77 77
80 80 80 81 81 81 81 81 79 79 80 79 80 81 81 82 82 83 82 83 82 82 83 82 82 81 80 79 79 79 78 78 79 78 78 79 79 79 80 80 80 79 79 79 79 79 78 78 78 78 77 77 78 78 78 78 78 78 78 78 78 78 78
77 78 78 79 80 80 79 79 79 79 79 79 81 81 80 80 82 83 82 82 83 83 82 82 83 82 80 80 79 78 78 78 78 78 78 79 79 80 80 80 80 80 80 80 79 79 79 78 78 78 77 78 78 78 78 78 78 78 78 79 79 78 78
77 77 78 79 78 79 78 77 78 78 78 80 81 81 81 82 82 83 81 82 83 83 83 82 81 80 80 80 80 78 78 78 78 78 79 79 79 80 80 80 81 81 80 80 80 80 79 79 78 78 79 78 79 79 79 78 79 78 78 78 79 78 78
78 78 79 78 78 77 77 77 78 78 78 80 81 81 82 83 83 82 81 81 82 83 83 83 81 80 80 79 78 77 77 78 78 78 78 79 78 79 79 80 80 79 80 80 79 80 80 80 79 79 79 79 79 79 79 78 78 78 78 78 79 79 78
75 78 78 78 77 77 77 77 76 77 78 79 80 80 81 82 82 81 81 82 82 83 83 82 80 80 80 79 78 77 78 78 78 78 78 79 78 78 78 79 79 79 79 79 80 81 81 81 81 79 78 79 79 79 79 79 78 79 79 78 78 79 79
76 78 78 77 77 78 77 78 77 77 78 78 79 79 81 80 80 81 81 82 82 82 83 81 80 79 79 79 78 78 78 78 78 77 77 77 77 77 78 79 79 80 79 79 80 80 79 80 80 80 79 78 78 79 79 79 79 75 69 71 79 78 79
76 77 77 78 77 78 78 77 78 77 77 77 78 79 80 80 81 82 83 83 83 82 82 82 79 79 79 78 78 78 78 77 77 77 76 77 77 77 77 78 78 78 78 78 78 79 78 79 79 80 80 79 79 78 78 79 79 70 65 65 67 77 79
75 76 77 78 78 78 77 77 77 77 78 79 80 80 80 79 80 81 82 82 83 83 83 82 80 79 78 78 78 78 77 77 77 76 76 77 77 77 77 78 78 77 77 78 78 78 79 79 79 79 80 80 80 80 79 79 72 66 65 65 64 67 78
76 77 77 77 77 77 78 79 79 78 79 80 81 81 82 81 81 80 81 81 82 83 82 82 81 79 78 78 78 77 77 77 77 77 77 77 77 77 77 77 77 77 77 78 78 78 77 77 78 78 79 79 79 79 80 80 71 65 64 64 63 63 70
76 77 78 79 79 79 79 79 79 80 81 81 82 84 84 83 82 82 83 83 82 82 81 80 80 79 78 78 78 78 77 77 77 77 77 77 77 77 77 77 76 78 79 79 78 77 77 78 78 78 78 78 78 78 80 79 71 65 63 62 62 62 65
72 74 76 77 77 79 78 78 78 79 79 81 83 82 83 81 82 81 82 82 81 81 79 80 79 78 78 78 78 78 78 77 77 77 77 77 77 77 77 77 77 77 78 79 78 77 77 77 77 78 78 79 80 79 79 80 69 64 61 60 60 60 63
72 74 76 77 77 77 77 79 78 79 79 81 82 83 83 82 83 83 82 83 82 81 80 79 78 78 78 78 78 78 78 78 77 77 77 77 77 77 76 76 76 76 77 78 79 79 79 78 79 78 78 79 79 79 79 81 68 63 61 59 59 60 68
74 75 76 76 79 79 78 80 79 80 79 80 82 82 83 83 83 83 82 82 82 81 81 80 78 78 78 78 79 79 79 79 78 77 77 77 77 76 77 76 76 77 78 77 78 78 78 78 79 79 79 79 79 78 78 80 71 62 59 58 58 60 71
74 75 76 76 74 74 74 75 76 78 80 79 80 82 82 83 83 81 80 81 81 81 81 80 79 78 78 78 79 80 79 79 78 78 77 77 77 77 78 78 78 78 78 78 78 78 79 79 79 79 79 79 79 80 79 79 73 61 58 57 57 63 72
71 74 76 76 76 75 75 75 77 78 77 78 78 78 80 82 82 81 80 80 81 81 80 79 79 79 79 79 80 80 80 80 79 79 79 78 78 79 78 78 78 79 79 79 79 79 79 79 79 79 79 81 80 75 78 80 75 61 58 57 56 63 74
70 71 72 74 76 76 76 77 78 77 77 78 77 78 80 81 81 80 79 80 81 80 79 79 80 80 81 81 81 80 80 80 79 79 79 78 79 79 79 79 80 79 79 79 79 79 80 79 79 78 79 80 80 81 80 80 80 72 57 57 55 58 73
72 72 72 74 75 78 76 77 78 78 79 77 76 79 81 81 80 78 78 78 78 79 80 81 81 80 80 81 81 81 81 81 80 80 80 80 80 80 80 80 80 80 79 79 79 79 78 79 79 79 79 80 80 81 81 82 80 76 58 56 55 56 63
73 74 75 75 76 75 74 74 73 73 74 74 77 79 80 79 78 78 77 77 78 79 82 81 80 81 81 80 81 82 82 81 81 81 81 81 80 79 78 79 80 79 79 79 78 77 77 77 77 78 79 79 80 80 80 81 75 82 62 57 55 55 56
70 70 71 72 73 75 74 72 72 72 72 74 75 77 78 78 77 77 77 77 78 79 80 81 81 81 80 80 81 81 81 81 81 81 82 81 80 79 78 79 79 79 78 78 77 77 77 76 77 77 77 78 78 79 80 79 78 69 73 58 55 54 54
70 71 71 73 74 73 73 72 72 72 72 73 74 75 76 77 76 76 76 75 74 74 78 79 80 80 80 80 80 81 81 82 82 82 82 81 80 80 79 78 79 78 78 78 77 77 76 76 77 76 77 77 77 78 79 79 79 71 69 67 55 54 53
68 69 70 70 71 72 72 71 71 71 72 73 73 74 75 76 76 76 74 73 74 74 76 77 78 79 79 80 80 80 82 82 82 82 82 82 81 79 79 79 79 77 78 77 77 77 76 76 76 76 76 76 76 77 78 78 77 79 71 66 59 55 54
68 69 70 71 70 71 71 71 71 71 70 71 72 73 74 74 75 74 73 73 75 75 74 75 77 78 78 79 80 80 82 81 82 82 82 82 81 81 80 80 79 78 77 77 77 77 77 76 76 76 76 76 77 77 77 75 76 74 73 69 67 61 56
66 67 67 67 69 70 69 70 70 70 70 69 70 72 72 72 73 73 73 73 73 74 74 74 75 76 76 77 79 80 80 81 81 81 81 80 81 81 81 80 79 78 77 77 77 77 77 77 76 76 76 76 77 77 75 73 72 72 71 70 72 72 67
65 67 67 68 69 69 68 68 68 69 69 68 69 70 71 71 71 72 72 73 73 73 73 73 74 75 75 76 77 78 79 80 81 81 80 80 81 80 79 80 80 79 78 77 77 78 77 77 77 76 77 76 77 76 73 71 71 71 72 71 71 71 68
65 66 67 67 67 68 67 68 68 68 68 67 68 69 69 70 70 71 72 72 72 72 73 73 74 74 74 74 75 76 77 78 79 80 80 76 68 62 62 69 77 79 79 78 79 80 79 78 79 78 79 79 78 74 72 72 70 71 65 72 63 69 69
65 66 67 67 68 67 68 68 68 68 67 67 68 69 69 69 69 70 71 72 72 73 75 74 73 73 73 73 75 75 76 76 77 77 75 71 66 63 58 50 44 49 69 74 62 62 64 66 78 80 80 79 77 77 75 73 75 62 56 54 54 54 57
63 64 66 67 67 67 67 68 69 68 67 67 68 68 69 69 69 70 70 71 71 72 72 73 72 72 72 73 74 74 76 76 75 73 71 69 67 66 63 62 58 46 43 48 51 52 55 54 56 62 66 75 75 63 54 58 52 50 50 49 49 49 48
64 65 66 67 66 66 66 67 66 65 65 66 68 68 69 69 69 69 70 70 70 70 71 73 73 72 72 73 73 73 74 74 72 71 69 68 69 69 68 66 66 63 48 43 46 45 42 46 53 54 56 60 64 62 60 51 48 47 47 46 46 46 45
MSLP
1004.22 1004.78 1005.02 1005.18 1005.62 1005.70 1005.74 1005.94 1006.26 1006.74 1007.14 1007.62 1008.02 1008.42 1008.86 1009.22 1009.58 1009.98 1010.46 1010.82 1011.22 1011.74 1011.94 1012.22 1012.54 1012.86 1013.30 1013.50 1013.70 1013.94 1014.14 1014.50 1014.78 1015.14 1015.46 1015.70 1015.86 1016.22 1016.58 1016.78 1017.06 1017.22 1017.30 1017.50 1017.58 1017.66 1017.78 1017.94 1018.14 1018.30 1018.42 1018.58 1018.78 1018.94 1019.10 1019.22 1019.42 1019.50 1019.62 1019.70 1019.90 1020.06 1020.18
1004.02 1004.14 1004.42 1004.78 1005.22 1005.38 1005.38 1005.62 1006.02 1006.38 1006.74 1007.02 1007.46 1007.86 1008.22 1008.66 1009.06 1009.54 1009.86 1010.22 1010.62 1011.02 1011.46 1011.82 1012.18 1012.46 1012.74 1013.06 1013.30 1013.62 1014.02 1014.22 1014.42 1014.70 1015.02 1015.42 1015.62 1015.82 1016.02 1016.38 1016.62 1016.94 1017.02 1017.02 1017.14 1017.30 1017.50 1017.66 1017.86 1018.14 1018.34 1018.46 1018.62 1018.74 1018.94 1019.06 1019.22 1019.42 1019.58 1019.66 1019.90 1020.02 1020.10
1003.10 1003.26 1003.58 1003.94 1004.30 1004.58 1004.90 1005.30 1005.58 1005.66 1005.98 1006.46 1006.82 1007.26 1007.54 1007.90 1008.26 1008.78 1009.34 1009.86 1010.34 1010.66 1010.98 1011.38 1011.66 1012.02 1012.34 1012.66 1013.14 1013.42 1013.62 1013.90 1014.22 1014.50 1014.86 1015.10 1015.34 1015.54 1015.74 1015.98 1016.30 1016.54 1016.66 1016.78 1016.98 1017.14 1017.18 1017.46 1017.62 1017.82 1018.06 1018.34 1018.50 1018.66 1018.78 1018.98 1019.06 1019.22 1019.38 1019.54 1019.74 1019.90 1020.06
1002.42 1002.58 1002.62 1002.50 1002.66 1003.10 1003.86 1004.42 1004.90 1005.26 1005.54 1005.70 1005.98 1006.34 1006.90 1007.38 1007.74 1008.22 1008.66 1009.14 1009.82 1010.34 1010.82 1010.98 1011.30 1011.66 1011.98 1012.42 1012.86 1013.14 1013.42 1013.58 1013.82 1014.10 1014.34 1014.58 1014.98 1015.22 1015.62 1015.86 1016.06 1016.26 1016.62 1016.70 1016.66 1016.82 1016.98 1017.18 1017.46 1017.66 1017.82 1018.14 1018.34 1018.46 1018.62 1018.74 1018.90 1019.02 1019.18 1019.38 1019.62 1019.70 1019.78
1001.62 1001.70 1002.10 1002.58 1002.90 1003.34 1003.86 1004.18 1004.42 1004.58 1004.74 1004.86 1005.30 1005.78 1006.22 1006.74 1007.30 1007.86 1008.30 1008.62 1009.06 1009.66 1009.98 1010.42 1010.82 1011.18 1011.50 1011.82 1012.26 1012.62 1012.94 1013.26 1013.58 1013.78 1014.02 1014.22 1014.54 1014.94 1015.34 1015.62 1015.78 1015.98 1016.06 1016.26 1016.54 1016.74 1016.90 1017.10 1017.26 1017.46 1017.66 1017.82 1018.10 1018.30 1018.46 1018.58 1018.74 1018.86 1019.02 1019.18 1019.50 1019.58 1019.74
1001.42 1001.82 1001.94 1002.06 1002.34 1002.66 1002.82 1002.98 1003.18 1003.46 1003.90 1004.54 1004.98 1005.50 1005.94 1006.42 1006.86 1007.42 1007.74 1008.30 1008.78 1009.06 1009.50 1010.02 1010.46 1010.78 1011.30 1011.50 1011.90 1012.30 1012.62 1012.94 1013.14 1013.34 1013.66 1013.98 1014.38 1014.78 1015.02 1015.18 1015.42 1015.62 1015.94 1016.02 1016.14 1016.38 1016.58 1016.86 1017.02 1017.18 1017.42 1017.58 1017.82 1018.06 1018.22 1018.46 1018.54 1018.66 1018.86 1019.06 1019.22 1019.38 1019.62
1000.70 1000.98 1001.22 1001.34 1001.58 1001.82 1002.02 1002.26 1002.54 1002.90 1003.22 1003.74 1004.38 1005.06 1005.66 1006.14 1006.54 1006.86 1007.30 1007.86 1008.22 1008.86 1009.34 1009.78 1010.02 1010.46 1010.86 1011.18 1011.62 1012.02 1012.46 1012.74 1013.02 1013.34 1013.50 1013.82 1014.06 1014.42 1014.62 1014.82 1015.02 1015.26 1015.38 1015.70 1016.02 1016.10 1016.42 1016.58 1016.70 1016.86 1017.02 1017.26 1017.54 1017.78 1018.02 1018.22 1018.42 1018.46 1018.70 1018.94 1019.10 1019.18 1019.30
999.90 1000.42 1000.42 1000.50 1000.70 1000.86 1001.26 1001.70 1002.06 1002.42 1002.94 1003.50 1004.26 1004.82 1005.22 1005.46 1006.06 1006.62 1006.94 1007.14 1007.66 1008.26 1008.82 1009.22 1009.70 1010.06 1010.42 1010.82 1011.18 1011.62 1012.02 1012.34 1012.58 1012.94 1013.26 1013.62 1013.86 1014.14 1014.34 1014.58 1014.74 1014.90 1015.22 1015.58 1015.62 1015.78 1016.02 1016.26 1016.38 1016.58 1016.78 1017.06 1017.30 1017.46 1017.66 1017.86 1018.06 1018.26 1018.46 1018.74 1018.94 1019.06 1019.06
999.02 999.14 999.50 999.74 999.98 1000.26 1000.62 1001.02 1001.46 1002.02 1002.54 1002.98 1003.38 1003.82 1004.38 1005.06 1005.58 1006.02 1006.46 1006.86 1007.30 1007.78 1008.22 1008.50 1008.94 1009.34 1009.86 1010.46 1010.94 1011.30 1011.58 1011.94 1012.34 1012.66 1013.02 1013.38 1013.58 1013.86 1013.98 1014.18 1014.38 1014.58 1015.02 1015.18 1015.38 1015.54 1015.70 1015.94 1016.14 1016.38 1016.62 1016.86 1017.06 1017.26 1017.46 1017.58 1017.78 1017.94 1018.18 1018.38 1018.58 1018.78 1018.90
999.10 999.30 999.18 999.14 999.34 999.66 1000.10 1000.62 1001.34 1002.14 1002.78 1003.18 1003.54 1003.98 1004.26 1004.50 1004.98 1005.50 1005.94 1006.26 1006.74 1007.34 1007.66 1008.14 1008.54 1009.02 1009.58 1010.10 1010.54 1010.82 1011.30 1011.70 1011.98 1012.38 1012.74 1013.10 1013.22 1013.50 1013.62 1013.82 1014.10 1014.26 1014.58 1014.78 1015.06 1015.42 1015.50 1015.66 1015.94 1016.18 1016.46 1016.70 1016.86 1017.02 1017.14 1017.30 1017.46 1017.66 1017.78 1017.98 1018.14 1018.38 1018.54
998.58 998.58 998.74 999.06 999.34 999.58 1000.06 1000.86 1001.54 1001.82 1002.02 1002.42 1002.74 1003.10 1003.62 1004.14 1004.54 1004.98 1005.46 1005.86 1006.34 1006.70 1007.06 1007.58 1008.02 1008.66 1009.22 1009.70 1010.26 1010.62 1011.06 1011.42 1011.70 1012.06 1012.38 1012.70 1012.90 1013.14 1013.30 1013.50 1013.78 1014.02 1014.26 1014.54 1014.86 1015.02 1015.30 1015.54 1015.62 1015.94 1016.22 1016.42 1016.54 1016.70 1016.82 1016.90 1017.06 1017.34 1017.50 1017.58 1017.70 1017.90 1018.10
998.66 998.74 998.82 998.82 999.06 999.62 1000.18 1000.26 1000.46 1000.98 1001.46 1001.86 1002.22 1002.62 1003.14 1003.54 1003.94 1004.42 1004.94 1005.30 1005.54 1006.22 1006.82 1007.22 1007.62 1008.18 1008.82 1009.30 1009.90 1010.38 1010.74 1011.02 1011.34 1011.66 1011.94 1012.22 1012.50 1012.74 1012.98 1013.22 1013.50 1013.74 1013.94 1014.14 1014.54 1014.74 1014.94 1015.22 1015.42 1015.58 1015.86 1015.94 1016.02 1016.14 1016.30 1016.46 1016.70 1016.94 1017.10 1017.26 1017.42 1017.58 1017.74
998.50 998.50 998.50 998.62 998.82 999.06 999.38 1000.02 1000.42 1000.54 1000.82 1001.18 1001.54 1001.98 1002.50 1002.98 1003.50 1003.98 1004.54 1005.06 1005.26 1005.62 1006.18 1006.74 1007.30 1007.86 1008.46 1008.90 1009.42 1009.94 1010.30 1010.62 1010.86 1011.06 1011.42 1011.74 1012.02 1012.26 1012.62 1012.90 1013.10 1013.38 1013.70 1013.82 1014.10 1014.46 1014.74 1014.86 1015.14 1015.22 1015.42 1015.58 1015.70 1015.86 1015.98 1016.18 1016.34 1016.58 1016.74 1016.90 1017.06 1017.26 1017.50
997.90 998.06 998.02 998.14 998.58 999.02 999.46 999.50 999.78 1000.26 1000.62 1000.98 1001.38 1001.70 1002.18 1002.50 1002.86 1003.42 1004.02 1004.58 1004.94 1005.38 1005.90 1006.42 1006.94 1007.50 1007.98 1008.50 1009.06 1009.46 1009.78 1010.02 1010.22 1010.54 1010.86 1011.14 1011.54 1011.90 1012.22 1012.50 1012.78 1012.98 1013.18 1013.46 1013.90 1014.10 1014.26 1014.50 1014.78 1014.90 1015.10 1015.22 1015.38 1015.46 1015.62 1015.90 1016.10 1016.22 1016.34 1016.50 1016.66 1016.90 1017.10
998.06 997.86 997.78 998.14 998.34 998.54 998.82 999.30 999.66 999.98 1000.34 1000.62 1000.98 1001.58 1001.94 1002.38 1002.82 1003.26 1003.78 1004.10 1004.50 1004.90 1005.38 1005.74 1006.50 1007.14 1007.66 1008.14 1008.66 1008.94 1009.14 1009.50 1009.82 1010.14 1010.54 1010.90 1011.30 1011.66 1011.94 1012.14 1012.34 1012.54 1012.82 1013.10 1013.34 1013.46 1013.70 1013.94 1014.30 1014.70 1014.90 1014.94 1015.10 1015.26 1015.38 1015.58 1015.70 1015.74 1015.86 1016.10 1016.30 1016.46 1016.70
997.34 997.18 997.34 997.66 997.90 998.10 998.30 998.54 998.98 999.42 999.86 1000.42 1000.86 1001.26 1001.70 1002.14 1002.54 1002.82 1003.30 1003.78 1004.18 1004.66 1004.94 1005.46 1006.18 1006.74 1007.26 1007.78 1008.10 1008.38 1008.78 1009.18 1009.54 1009.94 1010.30 1010.78 1011.14 1011.34 1011.54 1011.74 1011.98 1012.26 1012.54 1012.74 1012.86 1013.14 1013.38 1013.66 1013.90 1014.18 1014.46 1014.78 1014.90 1014.98 1015.10 1015.18 1015.10 1015.10 1015.26 1015.46 1015.74 1016.10 1016.30
996.74 996.66 996.74 996.94 997.30 997.58 997.82 998.18 998.58 999.10 999.70 1000.14 1000.42 1000.70 1001.06 1001.38 1001.70 1002.14 1002.78 1003.30 1003.78 1004.22 1004.50 1004.98 1005.78 1006.34 1006.78 1007.26 1007.54 1007.98 1008.46 1008.94 1009.34 1009.70 1010.18 1010.34 1010.66 1010.94 1011.26 1011.50 1011.70 1012.02 1012.22 1012.42 1012.66 1012.90 1013.10 1013.38 1013.70 1013.82 1014.02 1014.30 1014.54 1014.78 1014.78 1014.66 1014.50 1014.58 1014.94 1015.22 1015.42 1015.62 1015.94
996.38 996.26 996.34 996.54 996.78 997.10 997.58 998.02 998.54 998.98 999.34 999.58 999.82 1000.18 1000.62 1001.18 1001.62 1002.14 1002.54 1002.78 1003.26 1003.66 1004.14 1004.78 1005.42 1005.98 1006.42 1006.74 1007.22 1007.70 1008.18 1008.58 1009.02 1009.46 1009.74 1010.02 1010.30 1010.50 1010.82 1011.14 1011.50 1011.74 1011.94 1012.18 1012.50 1012.62 1012.78 1013.14 1013.26 1013.46 1013.66 1013.86 1014.06 1014.26 1014.26 1014.18 1013.98 1014.26 1014.58 1014.86 1015.14 1015.34 1015.50
995.82 995.66 995.66 995.86 996.38 996.78 997.10 997.46 997.78 998.06 998.30 998.70 999.14 999.58 999.82 1000.22 1001.06 1001.58 1001.78 1002.34 1002.70 1003.26 1003.98 1004.50 1005.02 1005.58 1006.14 1006.46 1006.86 1007.30 1007.66 1008.06 1008.58 1008.94 1009.26 1009.50 1009.74 1010.14 1010.54 1010.86 1011.14 1011.38 1011.66 1011.90 1011.90 1012.22 1012.62 1012.70 1012.94 1013.14 1013.22 1013.46 1013.74 1013.82 1013.70 1013.66 1013.58 1013.98 1014.18 1014.50 1014.78 1015.06 1015.30
995.70 995.42 995.34 995.42 995.50 995.90 996.26 996.66 997.02 997.26 997.42 997.70 997.98 998.26 998.82 999.46 1000.10 1000.78 1001.34 1001.98 1002.62 1003.22 1003.78 1004.34 1004.82 1005.22 1005.70 1006.10 1006.46 1006.82 1007.22 1007.66 1008.10 1008.54 1008.74 1009.02 1009.42 1009.78 1010.14 1010.46 1010.70 1010.82 1011.02 1011.34 1011.66 1011.98 1012.18 1012.30 1012.54 1012.66 1012.90 1013.02 1013.18 1013.30 1013.26 1013.22 1013.14 1013.50 1013.82 1014.14 1014.50 1014.78 1015.10
995.90 995.66 995.66 995.66 995.94 996.02 996.22 996.30 996.62 997.10 997.66 997.98 998.22 998.78 999.42 1000.14 1000.54 1001.02 1001.54 1001.86 1002.50 1002.90 1003.54 1004.02 1004.54 1005.02 1005.42 1005.82 1006.14 1006.54 1006.94 1007.34 1007.70 1008.10 1008.42 1008.70 1009.06 1009.42 1009.70 1009.94 1010.26 1010.54 1010.70 1010.94 1011.26 1011.54 1011.74 1011.90 1012.14 1012.26 1012.38 1012.54 1012.66 1012.90 1012.94 1012.66 1012.70 1013.10 1013.42 1013.74 1014.14 1014.46 1014.82
995.38 995.46 995.62 995.42 995.46 995.62 995.90 996.26 996.62 996.86 997.10 997.26 998.02 998.58 998.98 999.62 999.86 1000.54 1001.10 1001.42 1002.10 1002.66 1003.14 1003.66 1004.18 1004.62 1005.02 1005.50 1005.78 1006.06 1006.38 1006.86 1007.34 1007.70 1008.02 1008.38 1008.70 1009.10 1009.38 1009.58 1009.82 1010.10 1010.22 1010.50 1010.66 1010.82 1011.06 1011.30 1011.46 1011.74 1011.90 1011.98 1012.26 1012.50 1012.54 1012.10 1012.26 1012.62 1012.98 1013.34 1013.74 1014.14 1014.46
994.78 994.78 994.98 995.18 995.22 995.30 995.14 995.26 995.78 996.26 996.94 997.50 997.82 998.34 998.86 999.22 999.66 1000.34 1001.06 1001.66 1002.06 1002.46 1002.98 1003.42 1003.98 1004.26 1004.54 1004.94 1005.26 1005.58 1005.94 1006.30 1006.82 1007.26 1007.58 1007.94 1008.38 1008.70 1008.94 1009.18 1009.42 1009.58 1009.66 1010.18 1010.34 1010.58 1010.74 1010.86 1010.98 1011.02 1011.34 1011.62 1011.82 1012.02 1011.94 1011.78 1011.82 1012.22 1012.54 1012.94 1013.34 1013.90 1014.06
994.14 994.14 994.42 994.74 995.02 995.42 995.74 996.02 996.34 996.58 996.94 997.54 998.02 998.26 998.58 999.02 999.62 1000.26 1000.94 1001.46 1001.86 1002.34 1002.82 1003.18 1003.50 1003.70 1004.10 1004.46 1004.66 1004.98 1005.34 1005.74 1006.18 1006.70 1007.06 1007.46 1007.86 1008.10 1008.30 1008.42 1008.58 1008.90 1009.10 1009.62 1009.94 1010.14 1010.14 1010.30 1010.58 1010.62 1010.78 1011.06 1011.22 1011.18 1011.50 1011.34 1011.34 1011.78 1012.14 1012.54 1012.94 1013.18 1013.50
994.90 994.22 994.18 994.42 994.86 995.50 995.78 996.10 996.34 996.78 997.22 997.74 998.42 998.46 998.58 999.02 999.54 1000.26 1000.94 1001.30 1001.62 1001.90 1002.42 1002.78 1002.98 1003.26 1003.58 1003.82 1004.02 1004.34 1004.74 1005.14 1005.58 1006.02 1006.46 1006.90 1007.14 1007.30 1007.66 1007.86 1008.10 1008.22 1008.54 1008.90 1009.18 1009.46 1009.62 1009.86 1010.14 1010.30 1010.38 1010.38 1010.50 1010.62 1010.94 1010.86 1010.98 1011.34 1011.70 1012.06 1012.38 1012.74 1012.86
995.66 995.10 994.86 994.74 994.86 995.02 995.50 995.86 996.42 997.06 997.54 997.86 998.10 998.10 998.46 998.94 999.50 1000.10 1000.66 1001.02 1001.26 1001.82 1002.10 1002.14 1002.14 1002.30 1002.58 1002.98 1003.42 1003.78 1004.22 1004.58 1005.10 1005.46 1005.86 1006.26 1006.46 1006.66 1006.90 1007.10 1007.54 1007.98 1008.34 1008.58 1008.78 1009.10 1009.26 1009.50 1009.74 1010.02 1010.02 1009.98 1010.14 1010.22 1010.30 1010.50 1010.58 1010.86 1011.18 1011.50 1011.86 1012.14 1012.34
996.06 995.50 995.46 995.38 995.42 995.26 995.58 995.78 996.02 996.58 996.90 997.26 997.58 997.82 998.18 998.70 999.54 1000.22 1000.50 1000.86 1001.26 1001.50 1001.26 1001.10 1001.46 1001.94 1002.26 1002.62 1003.06 1003.46 1003.82 1004.10 1004.50 1004.98 1005.22 1005.42 1005.70 1005.94 1006.30 1006.70 1007.14 1007.46 1007.90 1008.26 1008.46 1008.74 1009.02 1009.26 1009.38 1009.58 1009.66 1009.62 1009.62 1009.70 1009.74 1009.78 1010.18 1010.38 1010.74 1011.06 1011.34 1011.70 1011.94
996.66 996.10 995.78 995.74 995.82 995.90 996.18 996.54 996.86 997.06 997.26 997.30 997.38 997.50 997.86 998.38 999.18 999.74 1000.26 1000.74 1000.94 1000.62 1000.46 1000.98 1001.42 1001.66 1002.06 1002.50 1002.78 1003.10 1003.42 1003.78 1004.06 1004.34 1004.70 1004.94 1005.38 1006.02 1006.34 1006.38 1006.62 1007.02 1007.42 1007.74 1008.10 1008.54 1008.78 1008.90 1009.10 1009.26 1009.30 1009.30 1009.22 1009.26 1009.30 1009.26 1009.62 1009.90 1010.26 1010.58 1010.90 1011.26 1011.46
997.86 997.62 997.30 996.98 996.94 996.78 996.66 997.22 997.54 997.74 997.82 997.66 997.58 997.62 997.82 998.30 999.14 999.66 1000.02 1000.42 1000.42 1000.42 1000.54 1000.70 1000.98 1001.38 1001.78 1002.18 1002.58 1002.86 1003.14 1003.42 1003.74 1004.06 1004.30 1004.70 1004.98 1005.46 1005.90 1006.02 1006.42 1006.70 1007.02 1007.46 1007.86 1008.22 1008.54 1008.70 1008.86 1009.06 1009.18 1009.14 1008.98 1008.90 1008.90 1009.02 1009.22 1009.42 1009.74 1010.06 1010.42 1010.74 1011.06
998.34 998.14 997.98 997.66 997.50 997.50 997.30 997.74 997.94 998.14 998.14 998.02 997.94 997.94 998.02 998.38 999.22 999.62 1000.06 1000.42 1000.26 1000.14 1000.26 1000.54 1000.86 1001.18 1001.66 1001.98 1002.26 1002.54 1002.82 1003.06 1003.30 1003.54 1003.78 1004.14 1004.58 1005.02 1005.46 1005.86 1006.10 1006.38 1006.70 1007.02 1007.42 1007.90 1008.26 1008.42 1008.58 1008.82 1009.02 1009.06 1008.94 1008.74 1008.66 1008.66 1008.78 1008.98 1009.18 1009.58 1009.98 1010.26 1010.46
999.46 999.18 998.94 998.74 998.50 998.10 998.02 998.26 998.46 998.38 998.46 998.42 998.38 998.30 998.38 998.50 999.10 999.74 1000.18 1000.30 1000.14 1000.14 1000.22 1000.46 1000.78 1001.18 1001.54 1001.78 1001.98 1002.22 1002.38 1002.66 1002.94 1003.22 1003.46 1003.74 1004.14 1004.78 1005.14 1005.54 1005.82 1006.38 1006.42 1006.74 1007.14 1007.46 1007.86 1008.02 1008.18 1008.50 1008.54 1008.66 1008.70 1008.54 1008.50 1008.42 1008.54 1008.66 1008.86 1009.06 1009.42 1009.70 1009.98
1000.06 999.70 999.38 999.10 998.94 998.82 998.86 998.74 998.70 998.70 998.90 998.90 998.70 998.74 998.78 998.90 998.94 999.66 1000.18 999.98 999.98 1000.02 1000.14 1000.34 1000.66 1000.98 1001.26 1001.50 1001.70 1001.86 1001.98 1002.46 1002.70 1002.86 1003.06 1003.34 1003.58 1003.98 1004.30 1004.78 1005.22 1005.66 1005.94 1006.30 1006.62 1006.90 1007.26 1007.54 1007.78 1007.98 1008.14 1008.30 1008.18 1008.26 1008.22 1008.30 1008.46 1008.62 1008.70 1008.90 1009.14 1009.50 1009.74
1001.02 1000.70 1000.46 1000.18 999.86 999.50 999.42 999.34 999.34 999.42 999.38 999.54 999.34 999.14 999.18 999.22 999.34 999.54 999.78 999.90 999.86 999.90 1000.06 1000.30 1000.62 1000.94 1001.14 1001.30 1001.34 1001.50 1001.74 1002.10 1002.38 1002.66 1002.82 1003.06 1003.30 1003.58 1003.90 1004.22 1004.70 1005.10 1005.58 1005.86 1006.26 1006.62 1006.86 1007.14 1007.46 1007.70 1007.86 1008.02 1007.98 1007.94 1008.06 1008.26 1008.42 1008.58 1008.70 1008.82 1008.98 1009.10 1009.34
1001.66 1001.18 1000.78 1000.54 1000.30 1000.06 1000.06 1000.18 1000.30 1000.14 999.94 999.94 999.78 999.62 999.62 999.74 999.94 999.86 999.70 999.62 999.66 999.70 999.94 1000.30 1000.54 1000.86 1001.10 1001.22 1001.34 1001.42 1001.50 1001.74 1001.86 1002.18 1002.54 1002.74 1002.98 1003.46 1003.82 1003.98 1004.18 1004.62 1005.06 1005.38 1005.70 1006.18 1006.58 1006.70 1006.98 1007.18 1007.30 1007.46 1007.38 1007.66 1007.98 1008.26 1008.38 1008.42 1008.54 1008.54 1008.54 1008.66 1008.98
1002.06 1001.70 1001.30 1001.02 1000.86 1000.70 1000.86 1000.86 1000.86 1000.78 1000.58 1000.38 1000.10 999.94 1000.02 1000.14 1000.06 999.74 999.46 999.34 999.38 999.50 999.82 1000.18 1000.38 1000.58 1000.86 1001.06 1001.22 1001.42 1001.46 1001.58 1001.74 1001.90 1002.18 1002.62 1003.14 1003.74 1004.10 1004.06 1003.86 1004.10 1004.30 1004.22 1004.34 1004.78 1005.34 1005.90 1006.06 1006.14 1006.22 1006.50 1006.90 1007.46 1007.94 1008.14 1008.30 1007.74 1007.30 1007.42 1007.70 1007.98 1008.54
1002.46 1002.02 1001.62 1001.34 1001.18 1001.14 1001.02 1001.06 1001.06 1001.14 1001.10 1000.82 1000.42 1000.10 1000.06 1000.06 999.94 999.74 999.54 999.42 999.38 999.34 999.66 1000.06 1000.34 1000.58 1000.78 1000.90 1001.06 1001.22 1001.38 1001.58 1001.74 1001.86 1002.26 1002.86 1003.46 1003.98 1004.74 1005.58 1005.30 1004.86 1004.38 1004.38 1004.54 1004.58 1004.46 1004.62 1005.14 1005.14 1005.42 1005.94 1006.06 1006.18 1006.78 1007.06 1006.62 1006.70 1007.34 1007.54 1007.78 1007.98 1008.02
1003.06 1002.62 1002.14 1001.74 1001.54 1001.34 1001.34 1001.30 1001.18 1001.14 1001.18 1001.06 1000.70 1000.50 1000.22 1000.06 999.94 999.82 999.74 999.62 999.58 999.58 999.74 999.86 1000.22 1000.50 1000.70 1000.90 1001.06 1001.10 1001.18 1001.42 1001.66 1001.98 1002.42 1003.02 1003.54 1003.90 1004.22 1004.74 1005.06 1005.34 1005.38 1005.14 1005.02 1004.82 1004.78 1004.78 1004.74 1004.74 1004.86 1005.22 1005.94 1006.30 1006.38 1006.34 1006.62 1006.78 1007.10 1007.46 1007.74 1007.98 1008.18
1003.14 1002.86 1002.38 1001.90 1001.74 1001.62 1001.46 1001.38 1001.38 1001.38 1001.30 1001.10 1000.94 1000.70 1000.30 1000.02 999.94 999.86 999.82 999.82 999.86 999.86 999.94 1000.02 1000.22 1000.58 1000.66 1000.70 1000.86 1000.98 1001.14 1001.34 1001.70 1002.14 1002.58 1003.06 1003.34 1003.66 1003.98 1004.22 1004.66 1005.18 1005.54 1005.58 1005.18 1005.10 1005.06 1004.98 1004.82 1004.70 1004.74 1004.82 1005.14 1005.82 1006.66 1006.82 1006.70 1006.90 1007.22 1007.46 1007.78 1008.06 1008.42
Wind_Speed
14 14 14 14 14 16 18 18 19 18 18 17 17 18 18 16 16 15 15 16 18 17 16 16 16 14 15 14 14 13 12 11 10 11 10 9 9 8 8 7 8 7 7 8 8 9 7 7 7 7 6 6 6 6 6 6 6 5 5 5 5 5 5
16 16 16 15 15 16 16 16 16 16 16 17 16 18 17 18 17 17 17 17 18 19 17 17 16 15 16 15 13 13 13 13 12 10 9 8 8 8 8 8 8 8 8 8 7 6 6 7 7 7 7 6 6 6 6 6 6 6 5 5 5 5 4
17 17 17 17 18 16 17 15 16 17 18 17 17 18 19 19 18 19 17 17 18 18 16 17 17 16 15 14 13 14 13 12 12 12 12 11 11 10 8 8 7 8 8 7 6 6 6 7 7 7 7 7 6 6 6 6 6 6 6 6 5 5 6
16 18 19 22 22 20 18 17 17 16 16 18 19 20 19 19 18 17 17 18 19 17 18 17 17 16 15 15 14 13 14 13 13 12 12 11 11 10 8 8 7 6 7 9 8 7 6 7 7 7 7 7 6 6 6 7 6 6 6 6 6 6 6
16 17 17 16 17 15 15 16 18 19 20 20 19 19 19 18 18 16 16 17 19 20 19 18 15 15 13 14 12 12 13 14 13 12 11 10 10 9 10 10 9 9 9 7 7 7 7 8 8 8 8 8 6 6 6 6 6 6 6 7 6 6 6
15 14 16 17 17 17 18 20 21 22 21 20 20 19 18 18 17 19 18 17 17 17 16 16 17 16 15 14 12 12 11 12 12 12 12 11 10 10 11 11 10 10 9 9 8 8 8 8 8 8 8 7 7 7 6 6 6 6 6 6 6 6 6
14 15 16 16 17 18 20 20 20 20 19 18 16 15 15 16 19 19 17 18 18 19 18 18 17 16 14 13 13 13 13 13 12 12 11 11 11 11 11 10 10 10 9 7 8 9 9 10 10 10 9 9 8 8 8 7 6 6 5 6 6 6 6
14 14 16 17 18 19 18 18 18 17 16 14 15 16 19 18 17 18 18 18 18 17 17 18 17 15 15 13 13 15 14 13 12 12 11 12 11 11 11 10 10 10 8 9 9 9 9 10 9 9 9 8 9 9 8 7 7 7 6 6 7 7 5
15 17 17 18 18 17 17 17 17 18 19 20 21 20 20 18 18 18 18 18 17 18 18 18 17 16 14 14 13 14 13 13 12 12 13 13 12 11 11 10 10 9 10 10 8 8 9 9 9 9 8 9 8 9 8 8 7 6 7 7 8 7 7
13 12 14 15 15 14 15 14 13 13 15 16 15 15 18 18 17 17 17 18 17 19 19 18 16 15 15 14 14 15 14 13 13 13 12 11 12 12 12 10 9 9 10 10 8 8 8 8 9 8 9 9 9 9 9 9 8 7 7 8 8 8 8
13 14 15 15 15 15 14 12 14 16 17 17 18 17 17 17 18 18 18 17 17 18 18 17 15 15 15 15 16 15 14 14 13 14 14 13 10 12 11 10 9 8 10 9 8 9 8 8 8 9 9 9 11 10 10 10 10 9 8 7 7 8 7
11 12 13 15 15 13 15 17 17 17 17 16 17 17 17 17 18 17 17 18 17 17 16 16 15 16 16 15 15 14 15 15 14 14 15 14 12 12 11 10 11 10 8 9 10 9 8 10 8 10 10 10 11 11 11 10 9 10 9 8 7 7 7
12 13 14 16 15 15 14 13 17 18 19 18 18 18 17 18 18 17 16 17 17 16 16 16 15 15 16 16 16 14 15 15 15 14 14 14 14 12 11 11 10 10 10 9 9 9 8 9 10 10 10 10 10 11 10 10 9 9 9 9 9 9 8
14 14 14 13 12 14 17 18 18 17 18 18 17 17 16 16 17 17 17 18 16 16 15 14 15 15 16 15 15 15 15 15 15 14 14 13 12 12 12 12 12 11 11 9 10 10 10 9 10 9 9 10 10 10 9 9 9 9 10 10 10 8 8
13 16 16 15 15 16 18 17 16 17 17 17 17 17 17 16 15 14 14 15 15 16 17 16 15 16 15 15 15 15 15 14 13 12 12 12 12 12 12 12 12 12 11 11 11 9 10 10 9 10 11 10 10 10 9 9 10 9 10 10 11 9 9
16 17 17 17 16 17 17 18 18 18 17 16 17 18 17 16 16 16 17 16 16 16 15 15 16 16 15 16 15 14 13 13 12 11 11 11 12 13 13 12 12 11 12 12 12 11 10 10 11 10 10 11 11 10 9 10 9 12 17 14 10 9 8
15 16 16 16 16 17 17 17 17 17 17 17 18 19 18 18 18 17 16 15 16 16 15 16 15 15 16 16 14 13 13 12 12 11 12 13 12 12 12 12 11 11 11 11 11 11 11 10 11 11 10 10 10 10 10 10 10 16 15 16 16 11 10
13 15 16 16 17 16 16 16 16 17 18 19 19 19 17 15 14 15 17 16 16 16 14 15 15 15 15 15 13 13 13 13 13 13 13 13 13 13 12 11 11 12 12 11 12 11 10 11 11 11 10 10 12 12 11 11 14 16 16 16 17 14 11
14 15 16 17 17 17 17 18 18 20 20 19 19 18 19 18 16 17 17 16 15 13 14 16 16 15 14 14 14 14 14 14 14 15 14 14 14 12 11 12 13 13 12 13 12 10 11 12 11 12 11 11 12 13 11 12 14 15 16 16 16 17 13
10 12 13 15 17 19 18 16 15 18 20 21 21 22 19 17 18 14 13 13 12 14 14 14 14 14 15 14 14 14 14 14 14 14 14 13 13 12 13 13 14 13 11 11 10 11 12 12 13 12 11 12 12 12 11 12 13 16 17 16 16 16 14
6 8 11 12 11 12 13 16 16 15 14 14 15 12 11 10 10 11 12 13 14 14 14 14 14 13 13 14 13 13 13 14 14 14 14 13 13 13 14 14 12 13 12 10 11 12 13 13 13 12 12 12 12 11 11 12 15 15 16 16 16 16 14
7 7 9 11 14 14 14 14 14 16 17 13 13 13 14 14 14 15 15 14 15 14 14 14 14 14 13 14 14 15 14 14 14 14 13 13 13 14 14 13 14 14 12 12 12 11 10 10 11 13 13 13 12 11 13 12 15 15 16 16 16 16 10
8 8 7 6 8 11 11 13 14 13 10 11 14 14 14 13 14 13 13 13 13 14 14 14 14 15 15 14 14 14 14 14 15 14 14 14 14 14 14 14 14 13 11 12 11 10 11 12 11 11 11 11 12 14 14 13 14 16 16 16 16 12 8
6 8 8 8 7 8 7 7 8 9 12 12 11 11 11 13 13 13 14 14 13 14 14 15 15 14 14 14 14 14 14 15 15 15 15 14 15 14 14 14 12 13 11 12 12 12 12 10 10 11 10 12 14 13 12 12 13 16 16 16 17 15 10
2 5 9 10 11 10 10 9 10 10 10 10 11 10 11 12 14 14 13 13 14 14 15 15 14 14 15 15 14 14 14 14 15 15 15 14 15 15 15 14 14 12 12 11 11 11 10 11 10 11 11 11 12 15 16 13 12 15 17 18 18 16 10
5 6 6 8 9 12 12 12 12 12 12 13 12 11 13 13 13 13 13 14 13 14 15 15 15 15 14 14 14 13 13 13 14 14 14 15 15 14 14 13 10 10 10 11 9 10 9 10 9 11 10 10 11 10 12 13 12 12 18 18 19 20 12
8 8 8 8 9 10 11 12 14 15 15 13 13 13 14 13 13 12 12 12 12 15 16 14 12 12 12 12 12 13 14 13 14 15 15 14 15 14 13 11 11 11 12 11 10 11 10 11 11 11 11 10 11 11 12 12 12 12 18 18 20 20 17
11 13 12 11 10 9 10 9 9 9 8 8 12 13 13 14 15 13 12 12 15 16 12 8 9 11 11 12 12 13 13 13 12 13 13 12 11 10 11 10 11 11 12 11 10 12 12 11 10 10 11 10 11 12 12 12 15 11 15 19 20 20 22
13 12 12 12 12 9 11 11 11 9 8 6 7 9 11 13 13 11 11 13 10 6 8 10 10 10 11 11 11 11 12 12 14 12 11 11 12 13 13 11 11 11 11 11 11 11 12 12 10 10 10 10 10 10 11 10 10 15 12 17 20 21 20
14 13 13 13 12 10 12 13 11 11 9 8 7 7 8 11 10 9 9 8 5 6 6 8 8 8 9 10 11 11 11 12 13 13 11 12 12 12 12 11 11 11 10 11 11 10 11 10 10 9 10 11 10 9 9 9 9 11 16 14 20 19 22
12 12 11 11 12 10 10 12 12 12 12 10 10 8 8 9 11 10 9 3 4 7 7 8 9 9 10 10 10 10 10 10 11 12 12 11 12 12 11 11 11 10 9 10 10 10 10 10 10 10 11 10 10 10 8 8 7 7 11 16 17 20 21
14 13 12 12 12 11 9 9 10 12 13 11 10 10 9 8 10 12 6 4 4 5 7 8 9 10 11 11 11 11 11 11 11 11 12 12 11 12 11 12 12 11 10 10 11 11 11 10 10 10 10 10 9 9 8 6 6 6 5 7 10 11 16
12 11 11 11 10 9 10 9 10 11 11 11 7 8 8 9 8 8 6 6 5 5 7 7 8 8 8 10 11 11 11 12 11 10 10 11 10 10 10 10 9 10 10 10 10 10 10 10 9 9 8 9 8 9 6 6 6 5 5 4 6 6 8
13 12 11 9 9 9 9 9 8 8 9 8 6 6 7 7 6 4 5 5 5 5 6 7 8 8 8 8 7 8 10 11 12 12 10 10 11 10 9 9 9 10 11 11 11 11 10 11 10 10 9 9 9 7 5 5 5 5 7 6 5 6 5
12 11 9 10 8 8 8 6 7 6 7 6 5 5 7 6 5 5 6 5 4 5 7 6 6 6 7 7 7 7 7 8 8 10 9 7 5 4 2 3 7 9 9 8 8 11 10 10 10 9 8 8 8 7 7 5 6 10 10 10 12 11 8
12 11 11 9 7 7 7 7 6 6 6 5 4 5 6 6 6 5 5 5 5 5 6 5 5 5 5 6 6 6 7 7 7 6 6 6 7 7 5 8 7 5 3 6 1 2 7 10 11 10 9 8 8 9 11 11 11 8 13 10 11 10 11
12 11 9 8 9 9 7 7 6 6 6 5 3 4 5 6 6 6 5 5 5 5 5 4 4 4 4 5 6 7 7 7 7 6 7 6 8 8 8 6 8 13 11 6 3 1 0 5 7 10 11 10 8 3 6 6 10 15 14 13 12 11 11
12 9 8 7 7 7 8 8 7 6 5 5 4 4 5 6 6 6 5 4 4 3 4 3 4 4 4 5 5 6 6 6 7 7 7 7 8 9 8 7 7 5 11 11 8 9 9 6 1 9 14 15 13 9 3 4 11 15 14 13 14 13 13
Wind_Direction
199 198 201 201 197 198 198 194 190 189 191 190 188 187 187 187 187 184 187 186 189 189 189 187 189 189 193 197 199 197 197 194 194 196 195 198 196 190 187 187 187 189 185 189 194 194 195 188 194 198 198 195 191 189 189 188 188 188 189 189 192 194 202
194 197 197 197 203 205 203 194 189 189 191 191 189 187 187 187 186 187 187 187 189 189 187 189 189 190 192 196 196 195 195 196 195 196 196 196 193 193 190 188 187 188 192 197 189 185 178 192 188 195 199 195 195 183 187 190 188 187 187 187 191 200 194
194 196 192 193 200 202 199 192 192 193 191 190 190 188 189 188 187 187 184 186 188 190 188 189 190 191 193 194 192 195 195 194 196 196 195 197 196 194 191 187 189 188 196 188 181 184 186 183 189 195 194 200 196 189 187 189 192 190 188 183 194 202 197
195 195 193 197 198 197 192 191 191 193 194 193 192 191 189 187 186 186 186 185 187 188 189 191 190 191 192 192 194 194 195 195 196 197 199 198 196 191 185 190 190 185 179 196 193 187 187 183 185 193 196 199 203 194 190 193 189 191 189 185 196 204 207
201 198 195 197 198 192 187 189 190 192 195 196 194 191 189 186 183 185 187 187 187 189 191 189 190 193 194 192 193 194 195 193 195 198 200 198 194 188 192 195 193 195 199 191 182 186 186 186 190 190 198 201 201 198 201 193 193 188 190 189 194 197 208
201 194 195 197 194 192 193 193 192 192 192 191 190 189 188 185 185 186 186 185 189 190 188 187 189 190 193 194 193 194 192 196 196 196 196 194 190 192 198 198 196 200 195 196 187 193 189 192 194 193 196 196 198 201 198 198 196 189 191 190 201 195 200
198 195 196 196 193 195 196 195 193 192 190 189 185 184 183 185 188 188 184 186 187 187 187 189 191 189 194 189 194 191 192 194 195 197 196 193 192 195 198 197 197 198 200 179 193 189 192 198 199 198 200 199 203 203 205 203 199 192 187 194 202 203 201
199 197 199 197 196 197 197 194 191 189 185 179 178 181 185 187 186 186 188 188 186 186 187 188 188 191 191 190 191 192 192 194 194 194 192 193 193 197 197 198 198 196 185 191 197 189 196 199 201 201 200 199 205 208 208 206 203 193 186 197 202 207 197
201 198 197 198 197 196 194 191 188 183 180 181 183 184 183 182 185 187 188 185 186 186 188 188 188 188 186 187 189 193 193 191 192 192 194 196 196 196 195 196 197 189 191 200 194 194 198 200 200 199 198 202 204 207 211 210 205 194 195 202 206 206 204
205 206 208 204 198 195 192 188 178 174 180 183 183 181 182 184 184 185 186 187 184 188 187 186 187 185 185 186 191 191 190 191 192 192 193 196 199 199 199 195 193 188 196 199 191 190 199 201 199 197 196 202 206 207 212 211 208 200 201 207 207 210 211
208 207 206 201 195 191 181 170 173 182 183 183 184 184 181 181 184 185 186 185 186 189 186 186 184 182 184 186 189 190 190 193 192 193 195 198 197 201 197 194 188 190 197 191 193 195 192 200 198 198 198 204 207 209 211 213 210 208 206 210 210 212 213
217 212 210 202 196 182 177 180 183 182 182 183 183 181 181 183 183 183 184 186 185 184 184 185 182 183 183 186 188 189 191 192 193 195 197 197 198 200 198 195 195 193 195 190 195 195 192 197 197 202 204 208 210 211 213 213 212 212 213 209 208 212 216
209 207 208 202 192 186 183 180 183 184 182 182 183 181 181 181 181 182 182 184 185 184 182 181 180 181 184 186 189 188 192 193 195 195 196 197 199 198 197 196 195 194 195 193 197 195 197 198 201 207 208 212 213 214 215 214 212 214 215 216 213 213 216
209 208 209 200 189 181 180 185 185 182 182 182 182 180 180 181 181 181 180 183 183 181 180 181 181 182 184 185 188 191 193 195 195 195 196 196 195 196 196 196 198 199 198 192 198 201 202 200 202 205 209 215 215 217 214 214 214 215 216 216 214 213 215
208 206 203 193 189 184 185 183 181 182 181 182 178 177 178 179 180 179 181 182 181 180 183 179 179 182 184 186 190 193 193 193 194 195 194 194 194 196 197 197 199 198 196 197 201 203 203 203 202 204 212 215 214 215 212 214 216 215 214 215 217 214 218
207 204 194 188 186 185 185 184 180 180 179 176 177 178 177 178 179 180 180 181 180 182 181 174 181 182 184 188 192 192 190 190 190 190 190 192 195 198 199 199 199 197 199 202 204 204 203 205 207 208 208 212 213 212 212 215 218 216 212 210 213 212 217
202 194 187 186 183 184 185 183 180 176 175 178 179 179 179 181 182 180 178 178 179 182 179 177 179 182 184 190 190 187 186 185 189 186 190 194 197 198 199 200 198 199 203 204 203 203 203 204 208 211 211 210 210 211 215 219 220 215 208 210 210 209 215
191 189 185 185 184 183 181 179 175 175 179 181 181 180 181 179 175 174 181 179 180 179 173 177 179 182 186 189 184 184 184 186 185 187 193 193 198 198 197 196 198 202 203 202 203 205 203 207 211 212 213 214 217 218 218 223 222 211 207 206 207 207 215
196 191 187 182 181 182 180 179 179 181 183 181 181 181 183 176 174 182 180 177 177 168 173 179 180 182 186 185 184 185 186 185 186 191 193 196 196 194 192 196 201 203 202 204 204 201 205 210 210 213 214 215 217 222 220 227 221 212 209 206 203 206 210
210 198 190 186 183 180 180 180 182 184 183 182 183 184 178 175 179 175 168 164 160 171 173 176 180 183 186 185 187 187 186 186 189 193 196 194 193 192 195 198 203 203 202 204 201 204 208 209 211 213 214 216 219 223 227 228 223 211 210 207 202 202 202
220 198 190 186 183 181 180 181 181 181 180 183 179 168 158 160 148 148 158 164 168 171 172 178 180 183 185 188 187 185 187 188 191 195 194 193 193 194 198 199 201 202 202 199 201 204 208 208 210 214 215 217 219 224 230 233 223 211 208 206 201 199 197
199 186 191 187 180 182 180 180 177 177 183 172 161 165 167 164 161 162 168 166 168 172 175 177 181 185 184 187 187 188 188 188 191 195 194 194 194 197 200 200 201 202 200 202 206 209 209 210 211 213 214 215 216 221 230 233 220 211 207 201 199 193 194
180 184 176 192 193 191 186 180 176 171 150 155 166 165 167 161 162 161 158 165 170 171 175 179 184 188 187 188 189 189 188 189 191 194 195 194 195 199 201 202 203 205 200 204 206 204 206 210 209 212 212 211 215 221 229 235 220 208 205 199 192 184 198
177 157 157 148 125 112 112 112 111 133 154 158 163 162 156 158 157 159 164 168 168 172 180 183 189 188 185 189 189 189 188 190 191 194 195 193 197 199 202 204 204 204 198 201 203 207 208 206 213 211 211 213 216 217 224 232 220 201 202 196 186 187 191
17 140 147 147 141 132 125 128 130 128 129 137 144 151 153 157 158 161 167 170 174 179 182 187 189 187 188 191 189 189 190 191 193 195 194 194 199 201 202 203 203 201 198 202 205 210 207 208 212 212 214 215 218 219 222 231 222 196 198 194 190 193 202
31 73 104 123 130 134 131 128 126 134 145 157 159 149 153 155 162 168 169 176 174 180 189 192 192 188 190 189 188 189 190 192 193 196 194 197 202 202 205 203 200 196 195 203 203 208 208 208 210 214 215 213 217 220 221 227 226 199 196 194 194 193 196
39 59 79 103 123 129 132 143 149 159 164 163 157 156 156 158 160 170 173 172 178 190 196 195 186 184 191 188 188 189 191 192 194 195 198 199 201 201 203 199 200 198 197 201 202 207 209 208 212 215 219 214 217 223 222 222 222 209 191 197 194 195 195
38 55 59 67 73 93 105 98 100 104 111 143 158 158 160 161 169 171 170 174 189 197 192 176 179 186 189 189 192 192 192 193 195 197 198 200 198 199 204 203 200 198 198 201 201 204 208 208 211 215 220 219 219 222 225 222 214 215 195 195 196 195 197
33 41 51 60 66 64 92 94 89 85 93 108 139 155 159 158 160 164 170 187 189 160 164 180 183 184 187 191 193 193 192 193 193 195 196 197 196 197 203 199 197 198 196 197 200 202 206 208 208 212 219 222 222 223 224 221 214 208 203 195 195 197 199
30 37 42 53 64 67 80 87 87 86 81 83 97 121 136 146 147 155 161 162 134 156 155 168 176 177 185 193 196 195 193 193 196 198 197 196 194 198 202 197 196 197 196 196 198 199 205 207 206 210 219 223 225 223 223 218 217 205 204 193 196 198 200
19 26 30 36 43 47 60 76 84 85 77 73 81 86 101 118 121 120 120 149 157 149 160 160 164 172 187 193 197 199 198 193 194 197 198 197 192 196 200 200 192 196 198 195 198 201 204 206 202 208 214 219 223 225 219 216 211 208 200 196 193 200 202
14 17 23 32 34 32 46 61 71 74 75 65 65 78 82 89 105 107 126 150 142 151 152 165 170 180 184 188 194 199 198 198 197 196 198 197 195 198 198 197 193 197 196 193 199 200 202 204 203 209 212 216 222 223 221 202 194 195 177 194 194 202 209
9 17 19 22 20 27 32 41 57 62 69 70 56 72 76 80 81 106 131 131 138 142 147 154 170 179 185 189 193 193 195 197 199 197 197 197 197 199 200 198 195 197 196 194 198 200 202 206 202 207 206 217 220 220 203 177 179 180 183 176 188 194 191
3 6 14 22 20 27 34 37 42 52 60 67 61 74 85 84 89 112 114 110 115 124 133 140 165 174 184 190 189 193 194 199 193 191 196 195 194 195 198 199 197 196 196 194 194 194 198 202 202 203 201 209 213 202 172 170 176 185 192 193 186 185 164
357 2 8 16 10 25 35 29 39 42 52 54 45 69 78 82 79 64 59 56 71 117 119 136 155 166 174 176 181 190 195 197 198 199 196 173 101 55 37 258 207 198 199 204 195 196 192 199 203 202 205 205 202 163 186 179 196 215 202 193 188 178 166
347 356 1 6 14 25 27 31 38 33 33 29 29 58 74 75 70 57 47 46 35 48 83 115 139 149 171 174 181 186 182 185 189 185 161 142 135 127 85 60 70 29 218 172 21 257 220 194 199 200 195 198 198 188 189 201 214 170 167 179 181 189 188
344 341 351 357 11 11 19 23 26 32 26 9 20 57 68 70 65 63 56 51 45 58 78 99 107 135 153 168 186 185 180 175 169 156 142 140 147 141 136 112 53 47 45 40 42 81 162 223 224 196 187 183 177 84 37 112 122 148 160 152 156 154 143
337 328 329 356 10 9 11 12 13 10 360 352 6 28 51 63 53 58 53 60 64 81 98 118 131 147 173 181 177 172 170 156 150 144 140 145 153 157 153 132 120 71 37 39 56 61 56 48 245 208 190 183 159 141 34 115 142 143 143 140 132 129 126